Tracking 28790 objects as of 19-Apr-2024
HD Live streaming from Space Station
objects crossing your sky now

CZ-6A DEB

Track CZ-6A DEB now!
10-day predictions


NORAD ID: 54938
Int'l Code: 2022-151SB
Perigee: 640.6 km
Apogee: 827.6 km
Inclination: 99.1 °
Period: 99.3 minutes
Semi major axis: 7105 km
RCS: Unknown
Launch date: November 11, 2022
Source: People's Republic of China (PRC)
Launch site: Taiyaun Space Center, China (TSC)

Note: This is SATELLITE DEBRIS
Your satellite tracking list
Your tracking list is empty




NASA's NSSDC Master Catalog

Two Line Element Set (TLE):
1 54938U 22151SB  24109.70042984  .00021141  00000-0  49269-2 0  9991
2 54938  99.1486 167.4723 0131582 191.8061 168.0037 14.49600395 75057
Source of the keplerian elements: AFSPC